Cambridge, MN

3:16 PM CST on February 20, 2017 (GMT -0600)
Cambridge Municipal

Weather History for KCBG - November, 2012

Change the Weather History Date:

Thursday, November 1, 2012

  Actual Average Record
Temperature  
Mean Temperature 35 °F -  
Max Temperature 42 °F 48 °F 66 °F (1990)
Min Temperature 28 °F 31 °F 5 °F (1951)
Degree Days  
Heating Degree Days 30    
Moisture  
Dew Point 30 °F    
Average Humidity 77    
Maximum Humidity 93    
Minimum Humidity 65    
Precipitation  
Precipitation 0.00 in - - ()
Sea Level Pressure  
Sea Level Pressure 29.97 in    
Wind  
Wind Speed 4 mph (NW)    
Max Wind Speed 15 mph    
Max Gust Speed 23 mph    
Visibility 10 miles    
Events Rain    
Averages and records for this station are not official NWS values.
T = Trace of Precipitation, MM = Missing Value Source: NWS Daily Summary

Daily Weather History Graph

Daily Weather History Graph

Search for Another Location

Airport or City:

Trip Planner

Search our weather history database for the weather conditions in past years. The results will help you decide how hot, cold, wet, or windy it might be!

Date:

Astronomy

Nov. 01, 2012 Rise Set
Actual Time 7:53 AM CDT 5:59 PM CDT
Civil Twilight 7:22 AM CDT 6:30 PM CDT
Nautical Twilight 6:47 AM CDT 7:05 PM CDT
Astronomical Twilight 6:12 AM CDT 7:39 PM CDT
Moon 7:50 PM CDT (11/1) 10:32 AM CDT (11/1)
Length of Visible Light 11h 07m
Length of Day
10h 05m
Waning Gibbous, 93% of the Moon is Illuminated
Nov 1
Waning Gibbous
Nov 6
Last Quarter
Nov 13
New
Nov 20
First Quarter
Nov 28
Full

Hourly Weather History & Observations

Time (CDT) Temp. Windchill Dew Point Humidity Pressure Visibility Wind Dir Wind Speed Gust Speed Precip Events Conditions
12:16 AM 33.8 °F - 26.6 °F 75% 29.91 in 10.0 mi Calm Calm - N/A   Mostly Cloudy
12:36 AM 33.8 °F - 28.4 °F 81% 29.90 in 10.0 mi Calm Calm - N/A   Mostly Cloudy
12:55 AM 32.0 °F - 26.6 °F 80% 29.90 in 10.0 mi Calm Calm - N/A   Clear
1:15 AM 30.2 °F - 24.8 °F 80% 29.90 in 10.0 mi Calm Calm - N/A   Clear
1:36 AM 28.4 °F - 24.8 °F 86% 29.90 in 10.0 mi Calm Calm - N/A   Clear
1:55 AM 30.2 °F - 24.8 °F 80% 29.90 in 10.0 mi Calm Calm - N/A   Clear
2:15 AM 28.4 °F - 24.8 °F 86% 29.90 in 10.0 mi Calm Calm - N/A   Clear
2:36 AM 28.4 °F - 24.8 °F 86% 29.90 in 10.0 mi Calm Calm - N/A   Clear
2:55 AM 28.4 °F - 26.6 °F 93% 29.90 in 10.0 mi Calm Calm - N/A   Mostly Cloudy
3:15 AM 35.6 °F - 28.4 °F 75% 29.90 in 10.0 mi Calm Calm - N/A   Overcast
3:35 AM 37.4 °F 34.9 °F 30.2 °F 75% 29.90 in 10.0 mi NW 3.5 mph - N/A   Overcast
3:55 AM 37.4 °F 34.9 °F 30.2 °F 75% 29.90 in 10.0 mi NW 3.5 mph - N/A   Overcast
4:16 AM 37.4 °F 34.9 °F 32.0 °F 81% 29.91 in 10.0 mi NW 3.5 mph - N/A   Overcast
4:35 AM 39.2 °F 37.0 °F 33.8 °F 81% 29.91 in 10.0 mi NW 3.5 mph - N/A   Overcast
5:15 AM 39.2 °F 34.2 °F 33.8 °F 81% 29.92 in 10.0 mi NW 6.9 mph - N/A   Overcast
5:36 AM 39.2 °F 35.0 °F 33.8 °F 81% 29.93 in 10.0 mi NNW 5.8 mph - N/A   Overcast
5:55 AM 39.2 °F 35.0 °F 33.8 °F 81% 29.93 in 10.0 mi NNW 5.8 mph - N/A   Mostly Cloudy
6:15 AM 39.2 °F 35.0 °F 35.6 °F 87% 29.93 in 10.0 mi NNW 5.8 mph - N/A   Mostly Cloudy
6:36 AM 39.2 °F 34.2 °F 33.8 °F 81% 29.94 in 10.0 mi NNW 6.9 mph - N/A   Mostly Cloudy
6:55 AM 37.4 °F 34.9 °F 33.8 °F 87% 29.94 in 10.0 mi NW 3.5 mph - N/A   Scattered Clouds
7:16 AM 39.2 °F 35.9 °F 33.8 °F 81% 29.94 in 10.0 mi NNW 4.6 mph - N/A   Mostly Cloudy
7:36 AM 39.2 °F 37.0 °F 35.6 °F 87% 29.94 in 10.0 mi NW 3.5 mph - N/A Rain Light Rain
7:56 AM 39.2 °F 34.2 °F 35.6 °F 87% 29.95 in 10.0 mi NNW 6.9 mph - N/A   Overcast
8:35 AM 39.2 °F 35.0 °F 33.8 °F 81% 29.96 in 10.0 mi NW 5.8 mph - N/A   Overcast
9:15 AM 37.4 °F 32.1 °F 33.8 °F 87% 29.97 in 10.0 mi NNW 6.9 mph - N/A   Drizzle
9:36 AM 39.2 °F 32.5 °F 33.8 °F 81% 29.97 in 10.0 mi WNW 10.4 mph - N/A   Overcast
9:55 AM 39.2 °F 33.6 °F 33.8 °F 81% 29.98 in 10.0 mi NNW 8.1 mph - N/A   Overcast
10:16 AM 39.2 °F 32.0 °F 33.8 °F 81% 29.97 in 10.0 mi NW 11.5 mph - N/A   Overcast
10:35 AM 39.2 °F 32.5 °F 33.8 °F 81% 29.97 in 10.0 mi NNW 10.4 mph 16.1 mph N/A   Scattered Clouds
10:56 AM 41.0 °F 34.7 °F 33.8 °F 76% 29.97 in 10.0 mi NNW 10.4 mph 17.3 mph N/A   Mostly Cloudy
11:15 AM 39.2 °F 32.0 °F 30.2 °F 70% 29.97 in 10.0 mi NNW 11.5 mph 20.7 mph N/A   Mostly Cloudy
11:36 AM 41.0 °F 33.9 °F 30.2 °F 65% 29.98 in - NNW 12.7 mph 20.7 mph N/A   Scattered Clouds
11:54 AM 41.0 °F 34.7 °F 32.0 °F 70% 29.98 in 10.0 mi NNW 10.4 mph 18.4 mph N/A   Scattered Clouds
12:16 PM 41.0 °F 34.7 °F 32.0 °F 70% 29.98 in 10.0 mi NW 10.4 mph 20.7 mph N/A   Scattered Clouds
12:35 PM 41.0 °F 33.9 °F 32.0 °F 70% 29.98 in 10.0 mi NW 12.7 mph 23.0 mph N/A   Scattered Clouds
1:16 PM 42.8 °F 38.0 °F 32.0 °F 66% 29.97 in 10.0 mi NNW 8.1 mph 19.6 mph N/A   Mostly Cloudy
1:36 PM 42.8 °F 36.2 °F 32.0 °F 66% 29.97 in 10.0 mi NNW 12.7 mph 17.3 mph N/A   Scattered Clouds
1:56 PM 42.8 °F 35.8 °F 32.0 °F 66% 29.96 in 10.0 mi NNW 13.8 mph 17.3 mph N/A   Scattered Clouds
2:15 PM 39.2 °F 33.0 °F 30.2 °F 70% 29.96 in 10.0 mi NNW 9.2 mph 18.4 mph N/A   Scattered Clouds
2:36 PM 42.8 °F 35.4 °F 32.0 °F 66% 29.96 in 10.0 mi NW 15.0 mph 18.4 mph N/A   Scattered Clouds
2:56 PM 41.0 °F 33.5 °F 32.0 °F 70% 29.96 in 10.0 mi NW 13.8 mph 19.6 mph N/A   Scattered Clouds
3:15 PM 39.2 °F 33.0 °F 30.2 °F 70% 29.96 in 10.0 mi NW 9.2 mph - N/A   Scattered Clouds
3:36 PM 39.2 °F 33.0 °F 30.2 °F 70% 29.96 in 10.0 mi NW 9.2 mph 16.1 mph N/A   Clear
3:56 PM 41.0 °F 35.8 °F 30.2 °F 65% 29.97 in 10.0 mi NW 8.1 mph - N/A   Clear
4:15 PM 41.0 °F 35.2 °F 30.2 °F 65% 29.97 in 10.0 mi North 9.2 mph 16.1 mph N/A   Clear
4:36 PM 39.2 °F 33.0 °F 30.2 °F 70% 29.98 in 10.0 mi NNW 9.2 mph 17.3 mph N/A   Clear
5:15 PM 39.2 °F 33.6 °F 30.2 °F 70% 29.99 in 10.0 mi NW 8.1 mph - N/A   Clear
5:36 PM 37.4 °F 32.1 °F 28.4 °F 70% 29.99 in 10.0 mi NW 6.9 mph 16.1 mph N/A   Scattered Clouds
5:55 PM 37.4 °F 30.8 °F 28.4 °F 70% 30.00 in 10.0 mi NW 9.2 mph - N/A   Scattered Clouds
6:16 PM 35.6 °F 30.7 °F 26.6 °F 70% 30.00 in 10.0 mi NW 5.8 mph - N/A   Scattered Clouds
6:36 PM 33.8 °F 29.6 °F 26.6 °F 75% 30.00 in 10.0 mi NW 4.6 mph - N/A   Clear
6:55 PM 33.8 °F 29.6 °F 26.6 °F 75% 30.00 in 10.0 mi NW 4.6 mph - N/A   Clear
7:16 PM 33.8 °F - 26.6 °F 75% 30.01 in 10.0 mi Calm Calm - N/A   Clear
7:36 PM 33.8 °F 30.8 °F 26.6 °F 75% 30.01 in 10.0 mi NNW 3.5 mph - N/A   Mostly Cloudy
7:55 PM 33.8 °F 30.8 °F 26.6 °F 75% 30.02 in 10.0 mi NNW 3.5 mph - N/A   Mostly Cloudy
8:16 PM 32.0 °F 27.5 °F 26.6 °F 80% 30.02 in 10.0 mi NNW 4.6 mph - N/A   Mostly Cloudy
8:36 PM 32.0 °F - 26.6 °F 80% 30.02 in 10.0 mi Calm Calm - N/A   Mostly Cloudy
8:55 PM 32.0 °F - 26.6 °F 80% 30.01 in 10.0 mi Calm Calm - N/A   Overcast
9:16 PM 32.0 °F 28.7 °F 26.6 °F 80% 30.03 in 10.0 mi NW 3.5 mph - N/A   Mostly Cloudy
9:35 PM 30.2 °F 26.7 °F 24.8 °F 80% 30.03 in 10.0 mi WNW 3.5 mph - N/A   Scattered Clouds
9:56 PM 30.2 °F - 24.8 °F 80% 30.03 in 10.0 mi Calm Calm - N/A   Clear
10:16 PM 30.2 °F - 24.8 °F 80% 30.03 in 10.0 mi Calm Calm - N/A   Clear
10:35 PM 30.2 °F - 24.8 °F 80% 30.04 in 10.0 mi Calm Calm - N/A   Clear
10:56 PM 28.4 °F 24.6 °F 24.8 °F 86% 30.05 in 10.0 mi NW 3.5 mph - N/A   Clear
11:16 PM 28.4 °F 24.6 °F 24.8 °F 86% 30.05 in 10.0 mi NNW 3.5 mph - N/A   Clear
11:35 PM 28.4 °F 24.6 °F 24.8 °F 86% 30.05 in 10.0 mi North 3.5 mph - N/A   Clear
11:56 PM 28.4 °F 24.6 °F 24.8 °F 86% 30.06 in 10.0 mi North 3.5 mph - N/A   Clear